This demonstration page uses our WeatherBlox Daily Observations layout. Learn more.

Left ArrowRight Arrow

39.51506, -84.39828

Hourly Observations for January 12, 2021

Temp ( °F °C ) Dew Point ( °F °C ) Humidity (%) Winds ( mph kmh ) Pressure ( in mb ) Visibility ( mi km ) Precip ( " mm )
12:15 am 00:15 Cloudy 26 -3.2 21 -5.9 82 82 SW 6 9 30.31 1027 10 16 N/A
12:35 am 00:35 Cloudy 26 -3.2 22 -5.8 82 82 W 10 17 30.31 1027 10 16 N/A
12:55 am 00:55 Cloudy 26 -3.3 22 -5.8 83 83 W 7 11 30.31 1027 10 16 N/A
1:15 am 01:15 Cloudy 26 -3.4 22 -5.8 84 84 W 7 11 30.31 1027 7 11 N/A
1:35 am 01:35 Cloudy 26 -3.5 22 -5.8 84 84 WSW 9 15 30.32 1027 7 11 N/A
1:55 am 01:55 Cloudy 26 -3.4 22 -5.6 85 85 SW 7 11 30.31 1027 7 11 N/A
2:15 am 02:15 Cloudy 26 -3.6 22 -5.7 86 86 W 6 9 30.32 1027 7 11 N/A
2:35 am 02:35 Cloudy 26 -3.6 22 -5.6 86 86 SW 10 17 30.32 1027 7 11 N/A
2:55 am 02:55 Cloudy 25 -3.9 21 -6 86 86 WSW 9 15 30.33 1027 7 11 N/A
3:15 am 03:15 Cloudy 25 -3.8 22 -5.8 86 86 WSW 10 17 30.32 1027 7 11 N/A
3:35 am 03:35 Cloudy 25 -3.8 22 -5.7 87 87 SW 9 15 30.32 1027 7 11 N/A
3:55 am 03:55 Cloudy 25 -3.8 22 -5.7 87 87 SW 8 13 30.31 1026 7 11 N/A
4:15 am 04:15 Cloudy 25 -4.1 21 -6 87 87 W 8 13 30.31 1026 7 11 N/A
4:35 am 04:35 Cloudy 25 -4.1 21 -6.2 86 86 SW 10 17 30.31 1026 7 11 N/A
4:55 am 04:55 Cloudy 25 -4.1 21 -6.3 85 85 WSW 10 17 30.31 1026 7 11 N/A
5:15 am 05:15 Cloudy with Mist and Fog 25 -3.9 21 -6 86 86 WSW 7 11 30.31 1026 7 11 N/A
5:35 am 05:35 Cloudy 25 -3.9 21 -6.1 85 85 W 8 13 30.32 1027 7 11 N/A
5:55 am 05:55 Cloudy 25 -3.9 21 -6.2 84 84 W 7 11 30.32 1027 7 11 N/A
6:15 am 06:15 Cloudy 25 -4 21 -6.2 85 85 WSW 8 13 30.33 1027 7 11 N/A
6:35 am 06:35 Cloudy 25 -3.9 21 -6 86 86 WSW 6 9 30.33 1027 7 11 N/A
6:55 am 06:55 Cloudy 25 -3.8 21 -5.9 86 86 WSW 7 11 30.33 1027 7 11 N/A
7:15 am 07:15 Cloudy 25 -3.9 21 -5.9 86 86 WSW 10 17 30.32 1027 7 11 N/A
7:35 am 07:35 Cloudy 25 -3.9 22 -5.7 87 87 WSW 8 13 30.33 1027 7 11 N/A
7:55 am 07:55 Cloudy with Mist and Fog 25 -3.9 22 -5.7 87 87 WSW 9 15 30.33 1027 7 11 N/A
8:15 am 08:15 Cloudy with Mist and Fog 25 -3.9 22 -5.6 88 88 SW 10 17 30.33 1027 7 11 N/A
8:35 am 08:35 Cloudy with Mist and Fog 25 -3.9 22 -5.5 89 89 SW 9 15 30.32 1027 5 8 N/A
8:55 am 08:55 Cloudy with Mist and Fog 25 -3.9 22 -5.5 89 89 SW 9 15 30.32 1027 7 11 N/A
9:15 am 09:15 Cloudy with Mist and Fog 26 -3.6 22 -5.4 88 88 SSW 12 19 30.33 1027 7 11 N/A
9:35 am 09:35 Cloudy with Mist and Fog 26 -3.4 22 -5.4 86 86 SW 8 13 30.32 1027 7 11 N/A
9:55 am 09:55 Cloudy with Mist and Fog 26 -3.3 23 -5.2 87 87 SSW 10 17 30.32 1027 7 11 N/A
10:15 am 10:15 Cloudy with Mist and Fog 26 -3.2 23 -5 88 88 SW 10 17 30.32 1027 7 11 N/A
10:35 am 10:35 Cloudy with Mist and Fog 27 -3 23 -4.9 87 87 SSW 12 19 30.32 1027 7 11 N/A
10:55 am 10:55 Cloudy with Mist and Fog 26 -3.1 23 -5 87 87 SSW 13 20 30.32 1027 7 11 N/A
11:15 am 11:15 Cloudy with Mist and Fog 27 -2.7 23 -4.8 86 86 SSW 13 20 30.30 1026 7 11 N/A
11:35 am 11:35 Cloudy with Mist and Fog 27 -2.7 23 -5 84 84 SSW 13 20 30.29 1026 5 8 N/A
11:55 am 11:55 Cloudy with Mist and Fog 28 -2 24 -4.7 82 82 SSW 15 24 30.27 1025 5 8 N/A
12:15 pm 12:15 Cloudy with Mist and Fog 28 -2 23 -4.8 81 81 SW 13 20 30.27 1025 7 11 N/A
12:35 pm 12:35 Cloudy with Haze 29 -1.9 23 -4.8 81 81 S 16 26 30.26 1025 5 8 N/A
12:55 pm 12:55 Cloudy with Haze 29 -1.7 24 -4.5 81 81 SSW 12 19 30.26 1025 7 11 N/A
1:15 pm 13:15 Cloudy with Haze 29 -1.4 24 -4.5 80 80 SSW 15 24 30.25 1024 7 11 N/A
1:35 pm 13:35 Cloudy with Haze 30 -1.1 24 -4.5 78 78 SW 14 22 30.25 1024 7 11 N/A
1:55 pm 13:55 Cloudy with Haze 31 -0.8 24 -4.2 78 78 SSW 12 19 30.25 1024 7 11 N/A
2:15 pm 14:15 Cloudy with Haze 31 -0.7 24 -4.4 76 76 SSW 15 24 30.24 1024 7 11 N/A
2:35 pm 14:35 Cloudy 31 -0.4 24 -4.2 76 76 S 10 17 30.23 1024 7 11 N/A
2:55 pm 14:55 Mostly Cloudy with Haze 32 -0.1 25 -4.1 75 75 SSW 14 22 30.23 1024 7 11 N/A
3:15 pm 15:15 Mostly Cloudy 33 0.6 25 -3.9 72 72 S 9 15 30.22 1023 7 11 N/A
3:35 pm 15:35 Sunny 32 0.2 25 -3.9 74 74 SSW 10 17 30.22 1024 7 11 N/A
3:55 pm 15:55 Sunny 33 0.6 25 -4.1 71 71 S 9 15 30.21 1023 7 11 N/A
4:15 pm 16:15 Sunny 33 0.6 25 -4 72 72 S 13 20 30.20 1023 7 11 N/A
4:35 pm 16:35 Sunny 33 0.6 25 -4 72 72 SSW 14 22 30.20 1023 7 11 N/A
4:55 pm 16:55 Sunny 33 0.7 25 -3.8 72 72 SSW 12 19 30.20 1023 7 11 N/A
5:15 pm 17:15 Sunny 33 0.5 25 -3.9 73 73 SSW 13 20 30.20 1023 7 11 N/A
5:35 pm 17:35 Sunny 32 0.1 25 -3.9 75 75 SSW 9 15 30.21 1023 7 11 N/A
5:55 pm 17:55 Clear 32 -0.2 25 -4.1 75 75 S 9 15 30.21 1023 7 11 N/A
6:15 pm 18:15 Clear 31 -0.6 24 -4.2 77 77 S 7 11 30.20 1023 10 16 N/A
6:35 pm 18:35 Clear 31 -0.7 25 -4 79 79 S 8 13 30.20 1023 10 16 N/A
6:55 pm 18:55 Clear 31 -0.7 25 -4 79 79 SSW 9 15 30.20 1023 10 16 N/A
7:15 pm 19:15 Clear 31 -0.6 25 -4.1 77 77 SSW 8 13 30.20 1023 10 16 N/A
7:35 pm 19:35 Clear 31 -0.7 25 -4 79 79 S 8 13 30.21 1023 10 16 N/A
7:55 pm 19:55 Clear 31 -0.7 25 -4 79 79 SSW 8 13 30.20 1023 10 16 N/A
8:15 pm 20:15 Clear 31 -0.8 25 -4 79 79 SSW 8 13 30.20 1023 10 16 N/A
8:35 pm 20:35 Clear 30 -1 25 -4 80 80 SSW 8 13 30.20 1023 10 16 N/A
8:55 pm 20:55 Clear 29 -1.6 25 -4.1 83 83 SSW 6 9 30.20 1023 10 16 N/A
9:15 pm 21:15 Clear 29 -1.7 24 -4.2 83 83 SSW 6 9 30.20 1023 10 16 N/A
9:35 pm 21:35 Clear 28 -2.4 24 -4.4 86 86 SW 5 7 30.20 1023 10 16 N/A
9:55 pm 21:55 Clear 27 -2.7 24 -4.3 89 89 SSW 6 9 30.20 1023 7 11 N/A
10:15 pm 22:15 Clear 27 -2.6 24 -4.2 89 89 SSW 6 9 30.20 1023 7 11 N/A
10:35 pm 22:35 Clear 26 -3.3 23 -4.9 89 89 SW 5 7 30.20 1023 7 11 N/A
10:55 pm 22:55 Clear 26 -3.4 24 -4.7 91 91 WSW 3 6 30.20 1023 7 11 N/A
11:15 pm 23:15 Clear 27 -2.6 24 -4.5 87 87 SW 3 6 30.19 1022 7 11 N/A
11:35 pm 23:35 Clear with Mist and Fog 26 -3.5 25 -4.1 96 96 SW 3 6 30.19 1023 7 11 N/A
11:55 pm 23:55 Clear with Mist and Fog 23 -5 22 -5.6 96 96 SSW 5 7 30.20 1023 7 11 N/A

Powered by AerisWeather